Epoch 2005 Dec. 16.0 TT = JDT 2453720.5 T 2005 Dec. 13.30445 TT MPC q 3.1427182 (2000.0) P Q n 0.12441338 Peri. 149.60174 +0.31091058 +0.94621486 a 3.9739706 Node 138.32784 -0.89686586 +0.32325368 e 0.2091743 Incl. 7.73713 -0.31458899 +0.01358287 P 7.92 From 241 observations 2005 May 16-Sept. 15, mean residual 0".5.
m1 = 10.0 + 5 logΔ + 10.0 log r